Davenport, IA

5:31 PM CST on January 20, 2018 (GMT -0600)
Davenport Municipal

Weather History for KDVN - October, 2010

Change the Weather History Date:

Sunday, October 31, 2010

  Actual Average Record
Temperature  
Mean Temperature 42 °F 46 °F  
Max Temperature 52 °F 56 °F 83 °F (1950)
Min Temperature 32 °F 36 °F 22 °F (2014)
Degree Days  
Heating Degree Days 23 19  
Month to date heating degree days 345 424  
Since 1 July heating degree days 432 560  
Cooling Degree Days 0 0  
Month to date cooling degree days 11 12  
Year to date cooling degree days 1059 786  
Moisture  
Dew Point 28 °F    
Average Humidity 57    
Maximum Humidity 82    
Minimum Humidity 32    
Precipitation  
Precipitation 0.00 in 0.09 in 1.28 in (1960)
Month to date precipitation 1.84 2.97  
Year to date precipitation 40.17 31.85  
Snow  
Snow 0.00 in - - ()
Month to date snowfall 0.0  
Since 1 July snowfall 0.0  
Since 1 September snowfall 0.0  
Snow Depth 0.00 in    
Sea Level Pressure  
Sea Level Pressure 30.21 in    
Wind  
Wind Speed 8 mph (ENE)    
Max Wind Speed 15 mph    
Max Gust Speed 18 mph    
Visibility 10 miles    
Events      
T = Trace of Precipitation, MM = Missing Value Source: NWS Daily Summary

Daily Weather History Graph

Daily Weather History Graph

Search for Another Location

Airport or City:

Trip Planner

Search our weather history database for the weather conditions in past years. The results will help you decide how hot, cold, wet, or windy it might be!

Date:

Astronomy

Oct. 31, 2010 Rise Set
Actual Time 7:33 AM CDT 5:58 PM CDT
Civil Twilight 7:04 AM CDT 6:27 PM CDT
Nautical Twilight 6:31 AM CDT 6:59 PM CDT
Astronomical Twilight 5:59 AM CDT 7:31 PM CDT
Moon 12:53 AM CDT (10/31) 2:39 PM CDT (10/31)
Length of Visible Light 11h 22m
Length of Day
10h 25m
Last Quarter, 37% of the Moon is Illuminated
Oct 31
Last Quarter
Nov 5
New
Nov 13
First Quarter
Nov 21
Full
Nov 28
Last Quarter

Hourly Weather History & Observations

Time (CDT) Temp. Windchill Dew Point Humidity Pressure Visibility Wind Dir Wind Speed Gust Speed Precip Events Conditions
12:52 AM 41.0 °F 38.0 °F 34.0 °F 76% 30.03 in 10.0 mi NNE 4.6 mph - N/A   Clear
1:52 AM 37.0 °F 31.0 °F 30.9 °F 79% 30.06 in 10.0 mi NNE 8.1 mph - N/A   Clear
2:52 AM 36.0 °F 30.3 °F 30.9 °F 82% 30.09 in 10.0 mi NE 6.9 mph - N/A   Clear
3:52 AM 36.0 °F 33.3 °F 30.9 °F 82% 30.09 in 10.0 mi NNE 3.5 mph - N/A   Clear
4:52 AM 33.1 °F 26.9 °F 28.0 °F 82% 30.11 in 10.0 mi NNE 6.9 mph - N/A   Clear
5:52 AM 33.1 °F 28.7 °F 28.0 °F 82% 30.14 in 10.0 mi NE 4.6 mph - N/A   Clear
6:52 AM 34.0 °F 28.0 °F 28.9 °F 82% 30.15 in 10.0 mi NE 6.9 mph - N/A   Clear
7:52 AM 35.1 °F 30.1 °F 30.0 °F 82% 30.18 in 10.0 mi NE 5.8 mph - N/A   Clear
8:52 AM 37.0 °F 31.0 °F 30.9 °F 79% 30.21 in 10.0 mi NE 8.1 mph - N/A   Clear
9:52 AM 39.9 °F 35.8 °F 30.9 °F 70% 30.23 in 10.0 mi ENE 5.8 mph - N/A   Clear
10:52 AM 44.1 °F 40.1 °F 28.0 °F 53% 30.25 in 10.0 mi East 6.9 mph - N/A   Clear
11:52 AM 48.0 °F - 27.0 °F 44% 30.25 in 10.0 mi East 6.9 mph - N/A   Partly Cloudy
12:52 PM 50.0 °F - 25.0 °F 38% 30.24 in 10.0 mi East 11.5 mph - N/A   Clear
1:52 PM 52.0 °F - 25.0 °F 35% 30.23 in 10.0 mi ENE 13.8 mph - N/A   Clear
2:52 PM 52.0 °F - 24.1 °F 34% 30.22 in 10.0 mi ENE 10.4 mph - N/A   Clear
3:52 PM 52.0 °F - 23.0 °F 32% 30.22 in 10.0 mi ENE 12.7 mph - N/A   Clear
4:52 PM 48.9 °F - 24.1 °F 38% 30.23 in 10.0 mi East 9.2 mph - N/A   Clear
5:52 PM 46.9 °F - 26.1 °F 44% 30.23 in 10.0 mi ENE 8.1 mph - N/A   Clear
6:52 PM 44.1 °F 42.5 °F 27.0 °F 51% 30.26 in 10.0 mi NE 3.5 mph - N/A   Clear
7:52 PM 45.0 °F 40.1 °F 26.1 °F 48% 30.27 in 10.0 mi ENE 9.2 mph - N/A   Clear
8:52 PM 41.0 °F 37.1 °F 26.1 °F 55% 30.28 in 10.0 mi East 5.8 mph - N/A   Clear
9:52 PM 39.9 °F 35.8 °F 27.0 °F 60% 30.31 in 10.0 mi ENE 5.8 mph - N/A   Clear
10:52 PM 39.0 °F 35.7 °F 26.1 °F 60% 30.33 in 10.0 mi ENE 4.6 mph - N/A   Clear
11:52 PM 36.0 °F 31.1 °F 26.1 °F 67% 30.34 in 10.0 mi ENE 5.8 mph - N/A   Clear